Погода в Онтарио

США     34°03′16″N   117°37′39″W
темп.,
°C
ветер,
м/с
пор.,
м/с
влажн.,
%
обл.,
%
осадки,
мм/ч
давл.,
гПа
погр.,
м
14 августа, вс
вс1423:00+28зюз2238100 0.0 1013187
02:00+26зюз114866 0.0 1012110
05:00+25зюз11480 0.0 101245
08:00+26зюз21470 0.0 1013193
11:00+32зюз32290 0.0 1013597
14:00+35зюз54224 0.0 1011962
17:00+33зюз55280 0.0 1009717
20:00+28зюз33395 0.0 1011382
15 августа, пн
пн1523:00+26з22501 0.0 1012248
02:00+25юз11522 0.0 1011119
05:00+25зюз11525 0.0 101046
08:00+26зюз10443 0.0 1010165
11:00+32зюз32280 0.0 1010630
14:00+35зюз54230 0.0 1009934
17:00+34зюз55242 0.0 1008809
20:00+29юз33370 0.0 1009393
16 августа, вт
вт1623:00+27зюз21420 0.0 1009214
02:00+26зюз11470 0.0 1009121
05:00+25зюз11480 0.0 100859
08:00+26юз21430 0.0 1009190
11:00+32зюз21274 0.0 1009541
14:00+36зюз44201 0.0 1008947
17:00+34зюз55221 0.0 1007759
20:00+30зюз34300 0.0 1008428
17 августа, ср
ср1723:00+27зюз22390 0.0 1010272
02:00+26юз11410 0.0 1009134
05:00+26зюз12420 0.0 100995
08:00+27зюз11380 0.0 1011181
11:00+33зюз32230 0.0 1011589
14:00+36зюз54180 0.0 1009881
17:00+35зюз55190 0.0 1008791
20:00+30юз33280 0.0 1010444
18 августа, чт
чт1823:00+27зюз223914 0.0 1012273
02:00+25юз114243 0.0 1011169
05:00+25зюз11430 0.0 101097
08:00+26юз11390 0.0 1011207
11:00+32зюз32270 0.0 1011582
14:00+35зюз54230 0.0 1009881
17:00+33зюз45230 0.0 1008734
20:00+29юз33330 0.0 1010421